Flag for Canada Weather past 2 weeks in Coquitlam, British Columbia, Canada

Now
38 °F

Chilly.


Feels Like: 38 °F
Forecast: 41 / 45 °F
Wind: 1 mph from North

Location: P. Meadows Coastal Station

Current Time: Jan 31, 2015 at 9:05:22 PM

Latest Report: Jan 31, 2015 at 8:00 PM


Visibility: N/A

Pressure: 30.16 "Hg

Humidity: 100%

Dew point: 38 °F

Location of CoquitlamLocation

Historic Weather in Coquitlam — Graph

°F

Coquitlam temperature yesterday

Maximum temperature yesterday: 53 °F (at 3:00 PM)
Minimum temperature yesterday: 30 °F (at 5:00 AM)
Average temperature yesterday: 39 °F

Past Weeks' High & Low Weather Summary

 TemperatureHumidityPressure
High61 °F (Jan 26, 3:00 PM)100% (Jan 17, 12:00 AM)30.47 "Hg (Jan 17, 12:00 AM)
Low29 °F (Jan 21, 6:00 AM)56% (Jan 26, 3:00 PM)29.47 "Hg (Jan 18, 1:00 AM)
Average44 °F92%30.20 "Hg
* Reported Jan 16 8:00 PM — Jan 31 8:00 PM, Coquitlam, Weather by CustomWeather, © 2014

Note: Actual official high and low records may vary slightly from our data, if they occured in-between our weather recording intervals... More about our weather records

Advertising

Coquitlam weather history for previous 24 hours

 ConditionsComfort  
Time TempWeatherWind HumidityBarometerVisibility
8:00 PM
Jan 31
38 °FChilly.1 mph100%30.16 "HgN/A
7:00 PM40 °FChilly.1 mph95%30.18 "HgN/A
6:00 PM41 °FQuite cool.2 mph93%30.19 "HgN/A
5:00 PM41 °FQuite cool.1 mph93%30.19 "HgN/A
4:00 PM42 °FQuite cool.1 mph90%30.19 "HgN/A
3:00 PM42 °FQuite cool.1 mph93%30.19 "HgN/A
2:00 PM40 °FQuite cool.No wind93%30.20 "HgN/A
1:00 PM40 °FChilly.1 mph100%30.22 "HgN/A
12:00 PM38 °FChilly.2 mph100%30.26 "HgN/A
11:00 AM36 °FChilly.1 mph100%30.28 "HgN/A
10:00 AM35 °FChilly.1 mph100%30.27 "HgN/A
9:00 AM33 °FChilly.1 mph100%30.28 "HgN/A
8:00 AM31 °FChilly.1 mph100%30.28 "HgN/A
7:00 AM32 °FChilly.1 mph100%30.25 "HgN/A
5:00 AM32 °FChilly.No wind100%30.28 "HgN/A
4:00 AM33 °FChilly.1 mph100%30.29 "HgN/A
3:00 AM34 °FChilly.1 mph100%30.28 "HgN/A
1:00 AM35 °FChilly.1 mph100%30.28 "HgN/A
12:00 AM34 °FChilly.No wind100%30.28 "HgN/A
11:00 PM
Jan 30
34 °FChilly.No wind100%30.27 "HgN/A
10:00 PM34 °FChilly.No wind100%30.26 "HgN/A
Weather by CustomWeather, © 2014

See weather overviewHow to use our weather pages